Temp
19 20 20 21 21 21 22 22 23 23 24 24 24 25 26 26 27 28 28 28 27 28 28 27 27 27 28 29 31 32 24 25 35 34 35 35 35 33 32 32 31 30 30 28 25
19 20 20 21 21 21 22 22 23 23 24 24 24 25 26 26 27 28 27 28 28 28 28 29 30 30 31 32 34 35 25 32 36 36 36 35 35 34 34 33 31 29 28 26 25
19 20 20 21 21 22 22 22 23 23 24 24 25 25 26 27 27 29 28 28 28 28 28 30 31 32 32 34 35 35 32 36 36 35 35 36 35 34 35 34 33 31 28 26 25
19 20 20 20 21 22 22 23 23 24 24 24 25 26 27 27 31 28 28 28 28 28 28 30 31 32 33 35 35 35 36 35 36 35 35 36 35 35 34 34 33 31 28 27 26
19 20 20 20 21 22 22 23 23 24 24 25 25 26 27 28 30 28 28 27 28 28 30 31 32 33 35 36 35 35 36 35 35 35 35 35 35 35 35 34 32 30 29 28 27
19 20 20 21 21 22 22 23 23 24 24 25 25 26 25 30 28 27 27 27 29 30 31 31 32 33 34 35 35 36 35 36 36 36 35 35 36 35 35 34 32 30 29 28 28
18 19 20 21 21 22 22 23 24 24 24 25 25 25 26 29 28 27 28 29 29 30 31 31 31 32 34 35 35 35 35 36 37 36 36 36 36 35 35 34 32 31 30 29 28
18 19 20 21 21 22 23 23 24 24 25 25 25 25 28 28 28 27 28 29 29 29 30 30 30 32 33 34 35 35 36 36 37 36 36 35 32 27 35 34 33 31 30 29 28
18 19 20 20 21 22 23 23 24 24 25 25 25 25 30 28 28 29 29 30 30 30 30 29 30 32 34 34 35 36 33 30 36 36 36 36 35 35 35 34 34 32 30 29 28
17 18 19 20 21 22 23 23 24 25 25 25 25 26 28 30 29 29 29 29 30 31 31 31 32 34 34 35 33 35 35 34 34 36 36 36 36 37 35 35 34 33 31 30 28
17 18 19 20 21 22 23 23 25 24 24 28 29 30 29 29 28 28 29 29 30 30 32 33 33 33 34 35 36 35 35 35 35 36 35 36 35 36 35 35 35 33 31 30 29
17 18 18 19 20 21 22 24 22 20 25 28 28 28 28 28 29 30 29 30 31 32 33 33 32 35 36 35 35 34 34 34 36 35 35 36 35 36 36 35 34 34 32 30 30
16 17 18 19 20 20 21 21 21 21 26 30 29 29 29 28 30 31 29 31 32 32 33 32 34 34 33 34 33 34 34 34 34 35 36 35 35 35 35 34 33 33 32 31 30
16 17 17 19 20 20 22 20 21 21 27 31 29 29 29 29 30 30 30 31 32 32 33 33 34 33 33 33 34 33 35 35 34 34 34 35 33 34 34 34 34 33 32 31 30
15 16 17 18 19 21 20 20 21 22 26 31 30 28 30 30 32 31 30 31 32 32 32 32 33 33 32 33 34 34 35 34 34 34 34 34 34 35 35 34 34 33 31 30 28
15 16 17 17 18 19 19 20 21 26 27 30 31 30 30 30 32 31 30 30 31 32 32 33 33 34 34 34 34 35 34 34 34 34 33 34 33 34 34 33 34 32 29 28 26
15 16 17 17 19 18 19 21 25 26 31 30 31 32 31 31 32 31 31 31 31 29 30 32 32 33 33 33 34 34 33 32 32 32 32 34 33 34 34 33 33 32 29 27 26
16 16 17 17 16 17 19 24 24 29 30 31 31 32 31 32 32 32 31 31 32 32 32 31 31 33 34 33 33 33 33 33 31 32 33 33 32 33 34 33 32 31 29 27 26
16 16 16 16 16 17 21 24 26 29 30 29 31 30 31 32 32 32 31 32 33 33 31 32 32 35 34 34 34 33 32 35 33 33 32 34 33 34 34 33 32 31 29 27 26
16 18 19 16 16 18 23 23 28 28 27 28 28 31 30 31 31 31 31 32 33 33 32 33 31 34 34 34 34 33 34 32 33 30 30 32 32 33 33 33 32 31 30 28 27
16 20 17 16 17 20 23 26 27 26 26 27 28 29 30 31 31 31 31 32 33 33 33 33 31 33 33 32 32 32 32 33 34 33 32 29 30 34 33 33 33 32 29 27 27
17 22 17 17 21 23 25 26 22 26 25 27 27 28 28 30 29 30 31 32 32 33 32 33 32 31 32 34 34 35 33 33 32 31 32 32 29 34 33 32 32 31 29 28 28
19 21 17 18 23 25 25 24 24 25 26 26 27 28 28 28 27 30 31 31 31 32 32 32 31 30 31 33 33 32 33 33 33 32 31 31 30 34 32 32 31 30 28 26 26
18 22 20 19 22 23 24 23 24 23 24 25 26 27 27 27 28 28 29 31 30 31 28 30 31 30 31 32 33 31 32 33 33 32 32 32 30 27 31 31 30 28 27 26 25
18 22 20 22 23 23 23 23 23 24 23 25 25 25 26 26 27 28 29 31 30 27 29 31 28 30 31 32 33 33 32 32 32 32 32 25 27 22 30 30 30 28 26 26 25
17 19 20 21 20 22 17 22 23 24 24 24 24 26 27 26 27 28 29 30 30 30 29 30 28 30 30 32 33 31 32 32 32 33 32 32 26 20 26 28 27 26 26 25 25
15 16 17 20 21 22 23 23 23 23 23 23 25 26 26 27 26 27 27 27 28 28 29 29 29 29 28 31 32 30 32 32 32 33 33 31 30 29 29 28 27 26 26 26 25
Height
1546 1545 1544 1543 1543 1541 1540 1540 1538 1536 1534 1533 1530 1528 1527 1525 1524 1525 1526 1526 1526 1525 1524 1525 1526 1526 1525 1521 1514 1511 1536 1532 1493 1498 1493 1497 1498 1509 1512 1515 1519 1522 1523 1526 1529
1546 1545 1545 1543 1542 1540 1540 1539 1537 1536 1534 1533 1531 1528 1525 1523 1522 1524 1524 1524 1525 1525 1525 1527 1527 1525 1522 1515 1508 1504 1538 1508 1492 1493 1493 1496 1498 1505 1504 1510 1518 1524 1526 1526 1528
1547 1545 1544 1543 1542 1539 1539 1538 1536 1535 1533 1532 1530 1528 1525 1524 1523 1520 1521 1522 1523 1523 1524 1526 1525 1523 1519 1510 1502 1497 1513 1493 1494 1499 1498 1492 1501 1501 1495 1487 1509 1519 1523 1526 1529
1546 1545 1543 1542 1541 1539 1538 1537 1536 1534 1532 1531 1529 1528 1525 1524 1519 1519 1521 1521 1521 1522 1525 1525 1524 1521 1516 1505 1502 1502 1496 1498 1494 1498 1498 1496 1495 1499 1501 1501 1510 1516 1520 1526 1527
1546 1544 1543 1542 1540 1538 1537 1536 1535 1533 1532 1530 1529 1527 1527 1524 1520 1520 1520 1520 1520 1523 1523 1523 1520 1516 1509 1501 1503 1500 1496 1500 1498 1498 1500 1499 1497 1499 1501 1503 1512 1514 1519 1522 1527
1544 1543 1542 1541 1539 1538 1536 1534 1533 1532 1531 1530 1528 1527 1527 1524 1522 1521 1521 1521 1522 1522 1520 1521 1517 1514 1510 1503 1502 1496 1498 1497 1496 1495 1499 1498 1493 1496 1497 1503 1510 1513 1517 1520 1524
1543 1542 1540 1539 1537 1536 1534 1533 1531 1531 1530 1528 1527 1526 1525 1522 1521 1522 1522 1522 1521 1520 1519 1519 1520 1517 1509 1505 1502 1500 1499 1491 1489 1491 1494 1494 1493 1494 1494 1501 1508 1512 1516 1519 1521
1542 1540 1539 1537 1536 1534 1533 1531 1529 1528 1527 1527 1526 1526 1522 1519 1520 1520 1521 1520 1520 1520 1520 1519 1519 1516 1511 1505 1503 1499 1490 1491 1485 1491 1492 1495 1511 1504 1492 1498 1504 1511 1515 1518 1520
1540 1539 1538 1536 1534 1532 1531 1529 1528 1526 1526 1525 1525 1526 1518 1517 1518 1518 1519 1519 1518 1519 1518 1518 1518 1513 1507 1507 1501 1490 1502 1508 1490 1490 1493 1493 1493 1491 1490 1496 1500 1507 1512 1516 1520
1538 1537 1536 1534 1533 1531 1529 1527 1525 1525 1523 1523 1523 1526 1517 1516 1516 1517 1518 1518 1518 1517 1517 1517 1514 1509 1505 1500 1509 1493 1489 1493 1496 1489 1491 1489 1487 1483 1489 1492 1498 1502 1509 1514 1518
1537 1536 1534 1533 1531 1530 1530 1528 1527 1524 1522 1517 1515 1512 1515 1516 1516 1516 1516 1517 1517 1516 1510 1509 1508 1506 1497 1493 1485 1488 1489 1491 1489 1490 1496 1489 1490 1484 1490 1492 1493 1500 1506 1511 1517
1534 1533 1532 1531 1530 1530 1530 1529 1529 1529 1521 1513 1513 1513 1514 1515 1512 1513 1516 1516 1513 1510 1506 1507 1509 1494 1491 1493 1492 1496 1500 1499 1489 1491 1495 1488 1487 1484 1488 1491 1494 1494 1499 1508 1514
1532 1532 1531 1530 1529 1530 1531 1530 1528 1528 1522 1506 1507 1509 1510 1513 1509 1506 1512 1510 1508 1507 1502 1506 1494 1493 1499 1500 1504 1500 1500 1496 1496 1490 1489 1489 1489 1486 1491 1493 1495 1495 1498 1503 1509
1532 1530 1529 1529 1531 1529 1530 1528 1529 1528 1518 1496 1501 1502 1506 1508 1505 1505 1507 1508 1506 1504 1500 1499 1493 1500 1502 1504 1499 1505 1488 1491 1494 1500 1504 1486 1510 1486 1487 1490 1492 1497 1499 1503 1509
1530 1529 1528 1527 1527 1530 1530 1529 1529 1530 1528 1488 1495 1499 1499 1502 1495 1499 1505 1505 1503 1501 1503 1500 1497 1499 1503 1499 1494 1498 1487 1492 1495 1499 1497 1492 1500 1484 1481 1488 1491 1498 1503 1506 1513
1528 1526 1525 1526 1526 1529 1527 1529 1531 1528 1520 1491 1490 1493 1496 1497 1494 1498 1502 1504 1502 1499 1499 1494 1494 1493 1494 1492 1493 1489 1495 1495 1495 1495 1509 1491 1498 1491 1485 1491 1490 1498 1508 1513 1518
1525 1523 1523 1524 1527 1527 1528 1530 1524 1518 1485 1486 1487 1485 1486 1487 1492 1494 1497 1500 1501 1512 1506 1496 1494 1493 1493 1494 1494 1494 1498 1516 1519 1510 1510 1483 1500 1490 1485 1492 1496 1498 1509 1514 1519
1522 1521 1520 1521 1523 1524 1528 1525 1523 1492 1486 1483 1484 1481 1484 1479 1485 1486 1490 1494 1492 1489 1489 1497 1504 1489 1487 1490 1491 1495 1493 1504 1524 1513 1499 1488 1508 1493 1486 1494 1500 1502 1510 1516 1519
1520 1519 1520 1522 1521 1523 1526 1517 1505 1490 1485 1486 1484 1489 1481 1477 1481 1484 1487 1486 1483 1487 1499 1490 1493 1474 1482 1485 1485 1487 1500 1481 1496 1488 1502 1487 1485 1482 1486 1492 1498 1502 1510 1514 1517
1520 1520 1520 1518 1519 1524 1520 1510 1494 1493 1497 1496 1496 1479 1484 1477 1484 1481 1483 1479 1479 1480 1487 1483 1499 1475 1479 1484 1483 1485 1481 1501 1497 1524 1520 1496 1494 1489 1489 1488 1496 1501 1506 1512 1515
1518 1516 1516 1518 1520 1521 1510 1500 1495 1498 1503 1499 1491 1485 1482 1476 1475 1476 1479 1476 1477 1476 1483 1482 1490 1478 1478 1489 1487 1491 1492 1486 1478 1484 1500 1527 1513 1472 1482 1488 1492 1499 1505 1512 1514
1518 1509 1515 1517 1517 1509 1502 1496 1502 1500 1505 1501 1499 1492 1488 1481 1483 1480 1476 1471 1473 1475 1481 1480 1485 1493 1483 1474 1476 1473 1479 1484 1497 1505 1491 1495 1516 1483 1484 1490 1494 1499 1508 1510 1512
1513 1509 1514 1515 1504 1497 1498 1501 1505 1502 1501 1499 1497 1495 1492 1491 1496 1480 1475 1476 1479 1477 1477 1478 1488 1498 1493 1478 1480 1484 1479 1477 1477 1485 1499 1505 1501 1480 1488 1492 1495 1499 1507 1512 1513
1515 1505 1511 1512 1504 1500 1495 1501 1501 1504 1502 1499 1498 1495 1496 1495 1490 1487 1481 1478 1483 1481 1483 1482 1480 1490 1488 1481 1468 1483 1482 1478 1482 1491 1488 1485 1495 1495 1493 1491 1499 1503 1508 1512 1514
1513 1501 1503 1501 1500 1500 1500 1499 1498 1499 1502 1500 1500 1499 1497 1497 1491 1488 1484 1476 1482 1483 1484 1483 1493 1485 1477 1471 1465 1465 1475 1477 1483 1479 1485 1500 1505 1513 1491 1493 1497 1504 1509 1512 1514
1515 1509 1507 1501 1505 1503 1503 1499 1500 1495 1497 1497 1500 1492 1491 1495 1491 1485 1481 1475 1476 1477 1482 1482 1491 1486 1483 1473 1468 1475 1471 1471 1474 1473 1475 1477 1502 1501 1500 1494 1502 1509 1511 1513 1515
1518 1515 1513 1502 1503 1499 1492 1496 1497 1497 1498 1497 1492 1492 1488 1489 1490 1487 1485 1485 1482 1481 1480 1481 1483 1488 1491 1473 1471 1482 1473 1469 1472 1471 1472 1481 1482 1490 1489 1497 1507 1510 1512 1513 1515
Wind_Speed
6 7 7 7 8 8 9 9 9 9 10 10 11 10 9 6 4 5 3 7 6 4 4 2 7 10 10 14 17 15 11 12 8 7 10 12 14 6 6 13 7 7 11 16 18
7 7 8 8 9 9 10 10 10 10 10 10 11 10 9 5 4 9 7 9 7 4 4 8 9 10 14 14 13 13 10 6 10 7 9 12 6 10 8 12 10 9 13 17 18
7 7 8 9 10 10 11 11 11 11 11 11 11 10 8 2 5 7 2 7 7 5 5 8 11 11 17 19 12 16 5 4 7 8 6 5 6 6 5 15 12 14 16 17 17
8 9 9 10 10 10 11 11 11 11 11 11 11 9 6 5 3 1 2 4 6 6 7 8 11 16 18 15 5 13 2 4 7 3 1 3 4 6 6 16 9 12 18 18 17
10 10 10 11 11 11 12 12 12 11 12 11 11 9 4 9 3 0 2 4 4 4 8 11 15 17 18 16 4 13 5 3 4 2 7 3 1 2 4 12 9 13 18 19 16
11 11 11 11 11 12 12 13 12 12 11 11 10 9 6 14 1 2 2 4 4 6 7 9 11 8 16 6 11 4 4 6 5 5 5 10 5 10 8 8 11 16 18 19 16
11 12 12 13 12 13 13 14 13 12 11 10 9 9 8 8 2 4 3 4 5 4 7 6 6 12 11 13 8 12 12 16 14 2 8 6 13 13 8 9 13 16 17 17 17
11 12 13 13 13 13 14 14 13 12 11 9 8 8 11 5 7 8 6 6 7 6 7 6 7 12 11 12 10 16 19 13 9 1 5 9 14 32 11 9 12 13 16 17 17
11 12 12 13 13 13 14 14 13 12 10 8 6 4 10 3 6 8 9 7 6 8 8 8 10 15 15 13 16 15 2 24 10 5 3 7 14 14 3 7 9 13 16 18 18
11 12 12 12 12 12 12 13 12 12 11 9 9 8 10 6 5 6 8 8 8 8 8 10 13 14 14 14 16 14 15 23 3 1 6 12 10 10 7 5 7 13 15 17 19
11 11 11 11 10 10 9 7 10 4 10 15 2 11 2 5 6 8 9 9 10 11 13 13 11 15 20 18 21 13 12 10 6 2 9 10 10 3 4 6 5 4 12 15 17
11 11 10 10 9 7 4 6 4 5 10 13 16 15 9 5 7 10 10 11 13 13 15 7 13 16 12 10 9 10 12 12 8 3 9 13 9 5 6 1 7 7 13 12 17
10 10 9 8 6 4 3 2 4 6 9 14 15 16 15 14 14 13 14 15 11 14 14 14 7 4 5 12 12 14 15 14 7 3 11 11 17 11 5 3 2 5 5 10 17
9 9 8 4 1 4 3 3 5 3 6 13 11 11 13 12 18 15 13 11 10 12 13 12 17 4 9 14 13 15 17 13 6 9 13 3 8 12 7 4 3 7 4 8 15
9 8 7 5 5 3 3 4 3 2 6 9 11 5 11 16 4 18 15 14 13 11 6 15 13 11 14 14 13 16 5 4 10 13 13 12 7 6 9 8 7 10 11 13 13
10 8 6 4 7 7 4 4 2 7 10 8 8 11 14 20 14 9 16 15 12 10 11 19 2 12 17 15 9 12 7 7 10 13 13 14 3 9 9 9 5 14 14 12 14
10 9 7 8 4 6 5 6 7 10 6 8 10 11 16 16 19 15 15 17 14 11 13 15 14 13 13 8 12 12 13 10 11 11 9 8 4 5 8 9 6 10 14 14 14
10 10 8 10 9 8 6 9 12 12 20 4 4 9 11 14 17 18 14 16 19 17 15 13 14 16 13 16 11 15 17 11 11 7 6 7 5 3 9 9 10 13 14 15 14
9 6 5 6 10 10 13 12 12 15 5 2 11 12 14 11 13 18 18 17 18 19 12 7 14 16 15 14 15 15 15 15 10 9 8 5 10 8 9 10 8 14 14 13 14
4 5 6 7 9 10 10 16 15 2 6 7 14 11 15 14 14 16 18 16 17 16 16 10 11 12 14 8 9 13 6 10 8 11 13 5 3 8 10 14 10 12 13 12 11
2 7 5 6 10 14 11 17 18 6 6 10 12 12 14 6 10 16 13 14 15 15 13 17 8 11 10 12 15 11 11 9 15 6 6 1 11 12 10 6 10 8 14 12 11
5 6 5 9 12 17 12 17 3 6 11 12 6 10 9 6 9 17 13 7 18 18 17 18 9 13 12 15 21 18 12 16 10 11 8 11 8 3 10 9 2 15 12 11 9
7 2 4 11 7 9 12 5 7 10 10 11 11 10 2 9 5 11 10 9 2 13 11 14 9 10 15 10 9 11 16 10 9 10 9 11 5 10 11 9 6 13 13 11 8
7 6 6 12 14 9 14 11 14 14 15 9 8 10 8 10 8 7 9 3 7 13 6 7 13 13 12 15 12 18 18 18 16 12 14 9 12 0 8 11 7 10 10 9 7
7 3 4 7 11 11 1 5 11 13 13 13 14 16 15 12 12 12 13 9 10 8 11 10 12 16 19 18 13 6 13 16 18 18 16 10 16 7 1 7 9 9 8 7 7
7 5 5 2 3 6 6 11 11 10 9 9 14 14 18 15 12 8 7 9 12 13 12 16 13 15 18 19 19 10 13 11 16 18 15 9 15 8 10 11 9 9 8 6 5
4 5 7 8 10 9 9 7 4 5 10 15 11 12 11 7 10 16 8 11 12 9 8 12 13 14 17 20 19 16 17 13 13 14 12 12 17 19 12 11 8 6 4 4 3
Wind_Direction
3 1 356 356 352 360 356 348 347 349 347 343 340 338 335 317 258 217 252 211 226 252 304 255 214 238 252 255 263 286 47 303 102 57 122 129 110 81 66 110 72 75 79 135 155
345 352 346 344 343 353 342 341 341 345 344 342 339 337 339 320 220 229 225 231 237 229 214 217 231 238 242 252 254 253 125 234 35 46 19 100 327 111 172 117 127 115 124 147 156
334 339 337 333 338 344 331 335 335 339 341 338 339 337 339 270 241 152 242 222 233 216 225 238 256 248 250 266 263 289 24 56 84 41 18 94 170 148 235 136 131 142 162 163 166
325 329 328 330 330 328 324 328 327 333 335 334 337 338 326 261 248 104 270 221 210 190 216 236 245 246 249 252 235 280 57 328 51 83 305 21 106 140 295 84 95 142 171 170 180
319 322 320 320 319 320 318 320 320 329 328 329 333 338 318 248 80 254 322 159 156 202 220 228 239 238 254 262 281 256 153 242 220 136 329 8 341 359 186 120 137 165 168 179 180
314 315 312 311 313 310 312 311 317 320 320 322 328 330 310 266 94 214 189 185 195 211 220 227 252 281 289 290 274 306 265 244 239 134 230 283 231 182 173 157 158 180 172 182 181
310 311 309 309 308 307 306 306 312 312 313 317 321 322 277 275 226 227 219 223 222 228 236 224 252 254 250 259 240 264 246 223 205 156 281 244 264 313 176 151 171 189 181 181 182
306 306 306 305 305 305 302 305 307 306 308 311 312 312 274 250 228 240 226 242 231 240 242 265 264 264 267 294 255 246 241 259 79 108 103 284 93 236 108 159 177 193 190 185 188
305 304 303 302 302 302 301 303 303 299 297 299 323 283 269 278 226 224 223 241 220 237 245 256 262 256 241 244 246 222 267 318 147 107 316 240 297 179 98 145 183 188 196 192 192
302 301 301 302 302 301 301 302 299 291 285 282 258 261 227 230 193 220 224 230 246 238 244 233 236 237 230 234 242 233 221 200 217 45 327 279 239 264 109 182 219 183 201 199 195
300 300 301 301 304 305 306 314 282 232 227 245 12 253 206 221 231 229 219 226 237 241 249 200 241 229 239 226 265 332 323 347 329 32 277 291 306 54 115 229 199 213 194 208 202
301 301 301 300 297 297 338 315 350 318 299 254 247 248 248 242 237 217 206 217 212 239 221 231 228 248 245 317 294 261 272 260 257 254 281 285 297 121 211 185 317 291 186 210 192
301 297 293 290 292 298 276 264 316 323 262 265 226 234 227 219 234 221 204 214 230 233 242 247 246 89 255 246 254 251 259 259 263 179 250 258 255 141 172 219 315 310 289 171 191
302 297 289 278 269 270 233 275 326 305 270 192 208 225 209 214 230 226 206 220 226 250 229 248 253 216 225 245 230 255 239 248 279 256 274 177 302 169 155 155 95 65 105 153 168
303 295 286 226 215 220 204 302 302 292 266 137 139 160 206 202 96 194 201 207 247 213 258 227 229 206 238 233 234 257 333 234 242 264 267 286 246 134 192 139 61 74 89 104 133
302 298 283 294 241 229 252 274 254 231 245 156 165 197 194 210 219 142 198 219 237 250 211 266 197 249 232 232 248 264 240 241 253 257 256 237 260 302 68 52 27 103 102 123 131
298 294 267 228 160 243 236 209 226 240 129 202 198 199 207 193 216 193 193 204 218 215 224 218 227 223 243 222 215 227 226 228 222 220 245 93 246 328 90 68 51 102 120 126 128
297 291 268 231 231 221 205 221 243 239 242 62 294 198 227 218 201 206 213 213 220 233 272 211 203 210 180 235 199 216 242 255 283 269 208 133 236 168 79 100 118 93 118 130 138
303 303 243 251 215 202 212 223 218 253 282 171 224 244 220 226 232 212 218 220 217 223 244 240 242 185 205 209 247 210 224 259 299 270 291 259 165 154 146 127 132 113 130 137 147
297 239 204 233 197 191 226 242 236 317 353 272 257 229 235 195 202 233 207 230 229 207 225 267 272 180 184 242 234 273 226 224 233 270 257 250 213 134 171 153 131 145 130 142 153
220 226 188 185 174 205 222 230 244 160 257 264 263 266 257 294 208 226 221 222 221 225 222 236 234 213 164 202 220 204 248 255 281 265 308 117 303 83 89 75 150 129 130 156 160
256 234 169 171 199 214 226 235 10 261 220 251 275 296 290 268 254 250 217 232 197 230 205 223 228 252 208 222 224 261 226 223 249 223 264 294 145 181 128 133 200 124 148 155 153
250 106 193 182 225 207 226 241 232 244 239 232 234 239 262 265 254 271 243 81 190 251 210 213 231 236 248 174 216 247 248 263 261 265 255 253 125 150 133 119 134 141 156 164 170
268 198 160 208 263 297 217 218 217 221 263 245 263 268 248 248 234 272 246 212 236 248 5 276 244 240 250 230 245 195 232 239 242 242 243 229 146 315 15 122 127 141 162 175 184
240 280 18 197 215 228 238 280 228 233 208 228 237 240 243 240 246 235 244 251 196 221 249 239 246 249 256 272 282 210 208 228 232 238 246 171 317 57 247 103 123 145 167 176 176
303 309 200 314 296 233 175 238 238 238 256 221 233 250 220 238 257 278 299 234 237 177 228 225 234 253 262 254 262 236 258 226 220 235 236 256 150 188 224 93 121 137 150 156 171
303 276 269 139 205 228 223 228 256 278 264 251 275 239 256 259 272 285 306 303 295 304 224 226 237 238 247 243 247 227 242 210 217 227 250 240 136 161 117 102 119 136 157 176 188